CSS (TIANHE-1)
1 48274U 21035A   25285.63509285  .00039373  00000-0  44676-3 0  9991
2 48274  41.4664  28.0619 0003138 233.5579 126.4971 15.61594809254488
TUBIN
1 48900U 21059X   25285.15178333  .00128214  00000-0  80642-3 0  9992
2 48900  97.6746 105.7552 0002040 136.1744 223.9683 15.76334273239546
LEDSAT
1 49069U 21073D   25285.18635959  .01968563  41040-2  15407-2 0  9997
2 49069  97.3567  14.3313 0008838 283.3175  76.7126 16.15736380231036
CUTE
1 49263U 21088D   25285.16674626  .00042055  00000-0  66253-3 0  9994
2 49263  97.4399   5.4910 0006828 132.4353 227.7479 15.53431284223721
TeikyoSat 4
1 49396U 21102B   25285.04237660  .00003337  00000-0  21907-3 0  9995
2 49396  97.3987 318.9443 0013889  69.7171 290.5549 15.08224228215307
Z-Sat
1 49399U 21102E   25285.59075657  .00007474  00000-0  39537-3 0  9998
2 49399  97.3674 323.3768 0018450  35.2444 325.0005 15.15587674215905
KOSEN 1
1 49402U 21102H   25285.59597341  .00011756  00000-0  51299-3 0  9999
2 49402  97.3567 327.7871 0015171   7.8226 352.3244 15.22196089216299
HO-113
1 50466U 21131B   25285.61760880  .00000874  00000-0  28559-3 0  9998
2 50466  98.5074  14.3476 0005224 117.0276 243.1446 14.40985377199458
SNUGLITE 2
1 52899U 22065F   25285.55127018  .00001874  00000-0  37011-3 0  9994
2 52899  98.1872  66.4618 0008658  83.0461 277.1725 14.63574750174768
UmKA 1 (RS40S)
1 57172U 23091G   25285.61845977  .00009376  00000-0  47726-3 0  9990
2 57172  97.5432 340.3694 0012323 260.0119  99.9724 15.16967786126424
CubeBel-2 (EU11S)
1 57175U 23091K   25285.61608504  .00015739  00000-0  69171-3 0  9994
2 57175  97.5428 342.3517 0009921 264.4067  95.6037 15.21949369126555
ENSO
1 58470U 23185J   25281.93581024  .00297561  00000-0  15281-2 0  9992
2 58470  97.3562   2.3759 0004010 303.5658  56.5227 15.80429301104004
SONATE-2
1 59112U 24043Q   25285.62382925  .00032971  00000-0  80174-3 0  9995
2 59112  97.5291  59.8176 0010009  29.6263 330.5548 15.40857976 89554
MO-122
1 60209U 24125G   25285.33970061  .00035513  00000-0  84237-3 0  9996
2 60209  97.2621 135.8619 0017990  51.5619 308.7239 15.41472313 71137
GRBBeta
1 60237U 24128C   25285.39884040  .00006179  00000-0  44538-3 0  9993
2 60237  61.9927   3.9996 0056971  83.7018 277.0559 15.03905607 68965
Curium One
1 60242U 24128H   25285.59663794  .00011488  00000-0  74190-3 0  9998
2 60242  61.9820 359.5131 0056654  80.1535 280.5949 15.07340455 69069
ROBUSTA-3A
1 60243U 24128J   25285.50908640  .00011884  00000-0  77946-3 0  9994
2 60243  61.9895   1.1002 0056466  77.7015 283.0392 15.06755022 69031
CatSat
1 60246U 24125J   25285.50528381  .00039916  00000-0  11373-2 0  9991
2 60246  97.2436 133.7566 0038402  10.9652 349.2420 15.35225568 69115
HYPERVIEW-1G (RS66S)
1 61772U 24199AP  25285.65573872  .00043426  00000-0  10174-2 0  9997
2 61772  97.3300 154.5809 0014025 100.0111 260.2720 15.41869866 96182
AO-123
1 61781U 24199AY  25285.63096152  .00011572  00000-0  39547-3 0  9999
2 61781  97.3329 151.8005 0016953 110.9828 249.3229 15.30304090 95999
ZIMSAT 2
1 61783U 24199BA  25285.61484560  .00101382  00000-0  15615-2 0  9991
2 61783  97.3234 156.5264 0012916  93.3492 266.9240 15.53747186 99467
HADES-R (SO-124)
1 62690U 25009CK  25285.60317046  .00101804  00000-0  23760-2 0  9992
2 62690  97.3971   6.7253 0001471 338.8647  21.2539 15.41824539 41319
HYDRA-T
1 62692U 25009CM  25285.49248615  .00107023  00000-0  24474-2 0  9998
2 62692  97.3971   6.7197 0001304 328.0863  32.0305 15.42416687 41306
JINJUSat 1B
1 63210U 25052A   25285.51249529  .00022040  00000-0  91156-3 0  9998
2 63210  97.4224 178.1679 0001837 215.8313 144.2801 15.23977698 32252
NUSHSAT 1
1 63211U 25052B   25285.60708912  .00025100  00000-0  10176-2 0  9997
2 63211  97.4210 178.3177 0001561 224.0194 136.0920 15.24624580 32279
TEVEL2-4
1 63213U 25052D   25285.65071036  .00023752  00000-0  97714-3 0  9999
2 63213  97.4128 178.0312 0000634 280.4321  79.6845 15.24143760 32279
TEVEL2-5
1 63214U 25052E   25285.45682797  .00023525  00000-0  96952-3 0  9991
2 63214  97.4129 177.8330 0000610 286.9905  73.1266 15.24085014 32241
TEVEL2-6
1 63215U 25052F   25285.46227026  .00023147  00000-0  95521-3 0  9994
2 63215  97.4128 177.8293 0000721 284.6702  75.4455 15.24043856 32245
TEVEL2-1
1 63217U 25052H   25285.55865583  .00022791  00000-0  94815-3 0  9991
2 63217  97.4105 177.7846 0001186 327.3176  32.7987 15.23773779 32251
TEVEL2-3
1 63218U 25052J   25285.62419568  .00023003  00000-0  95648-3 0  9990
2 63218  97.4106 177.8524 0001231 326.5797  33.5363 15.23789625 32263
TEVEL2-2
1 63219U 25052K   25285.55941759  .00022707  00000-0  94473-3 0  9990
2 63219  97.4107 177.7853 0001235 327.0733  33.0427 15.23771838 32251
TEVEL2-9
1 63237U 25052AD  25285.20252904  .00021551  00000-0  93342-3 0  9999
2 63237  97.4167 177.2189 0005677 314.1044  45.9725 15.22405968 32171
TEVEL2-7
1 63238U 25052AE  25285.67137641  .00021084  00000-0  91566-3 0  9998
2 63238  97.4170 177.6664 0005694 311.8850  48.1900 15.22318027 32243
TEVEL2-8
1 63239U 25052AF  25285.61017777  .00020912  00000-0  90911-3 0  9992
2 63239  97.4170 177.5935 0005710 312.7355  47.3400 15.22286146 32234
HYDRA-W
1 63490U 25052BL  25285.61005988  .00064237  00000-0  20623-2 0  9992
2 63490  97.4105 178.9624 0006384 304.5421  55.5218 15.32047810 32335
HADES-ICM (SO-125)
1 63492U 25052BN  25285.54741013  .00060035  00000-0  19925-2 0  9997
2 63492  97.4113 178.7585 0007066 309.2815  50.7798 15.30992791 32310
